Location: *
(11.7485°N, 79.7483°E)
Time: 01:17:53
(UTC+00:00)

Daily predictions for brighter satellites

Satellite Brightness Start Highest point End
(mag) Time Altitude Azimuth Time Altitude Azimuth Time Altitude Azimuth
Cosmos 540 Rocket 4.2 00:01:32 10° SW 00:05:52 28° WNW 00:10:13 10° NNW
Cosmos 1464 Rocket 4.4 00:06:51 10° SSW 00:12:27 37° W 00:18:02 10° NNW
Fermi 3.7 00:10:01 22° WNW 00:12:33 81° NNE 00:16:42 10° ESE
FALCON 9 DEB 2.8 00:10:22 10° SW 00:13:27 59° NW 00:16:30 10° NNE
CENTAUR R/B 2.1 00:09:47 10° SSW 00:14:57 90° SW 00:20:44 10° NNE
FALCON 9 DEB 2.7 00:12:33 10° SW 00:15:42 71° NW 00:18:50 10° NNE
COSMO-SKYMED 1 2.7 00:12:23 10° SSE 00:16:43 81° ENE 00:21:03 10° N
Cosmos 1892 Rocket 3.5 00:13:39 10° NNW 00:17:59 63° W 00:22:22 10° S
Lacrosse 4 Rocket 2.1 00:18:27 10° SW 00:22:03 30° WNW 00:25:44 10° N
CZ-4B R/B 3.8 00:21:20 10° NNW 00:24:18 23° WNW 00:27:23 10° SW
Spot 2 4.4 00:20:31 10° NNE 00:24:34 65° ESE 00:28:47 10° S
SMAP 4.3 00:21:07 10° NNE 00:25:35 46° ESE 00:30:01 10° S
H-2A R/B 3.3 00:22:17 10° NNW 00:25:39 33° WNW 00:29:04 10° SW
Cosmos 1689 Rocket 4.1 00:23:11 10° SE 00:25:46 29° ENE 00:28:19 10° NNE
SL-24 R/B 4.3 00:24:02 10° SSW 00:27:23 35° W 00:30:53 10° NNW
Cosmos 1400 Rocket 3.0 00:24:39 10° SSW 00:28:31 48° W 00:32:26 10° N
Shi Jian 4 4.1 00:26:59 11° WSW 00:29:19 62° NNW 00:34:48 10° ENE
Cosmos 990 Rocket 3.9 00:24:54 10° NNW 00:30:02 87° W 00:35:11 10° SSE
USA 238 DEB 3.8 00:24:29 10° SW 00:30:36 46° WNW 00:36:51 10° N
USA 238 3.8 00:24:35 10° SW 00:30:44 46° WNW 00:36:59 10° N
Centaur Rocket 4.3 00:19:27 13° WNW 00:31:43 74° SSW 00:35:56 10° ESE
SJ 16-02 2.2 00:28:10 10° NW 00:31:57 29° W 00:35:44 10° SSW
CZ-3A R/B 3.6 00:21:07 12° WNW 00:32:47 67° NNE 00:39:47 10° E
Cosmos 1300 3.6 00:33:15 10° S 00:36:58 54° E 00:40:40 10° NNE
YAOGAN 6 3.2 00:36:43 10° NNW 00:40:05 35° WNW 00:43:27 10° SW
CZ-4B R/B 2.5 00:40:06 10° SSW 00:42:51 24° W 00:45:38 10° NW
ERS-2 2.1 00:40:21 10° S 00:43:56 61° WSW 00:47:32 10° NNW
H-2A R/B 3.4 00:23:38 10° SW 00:48:35 89° SSE 00:53:12 10° ENE
VEP-3 4.3 01:25:30 10° WNW 01:57:46 90° SSW 02:04:10 10° ESE
